www.pogodaiklimat.ru

Погода и климат >> Архив погоды >> Россия >> Саратовская область >> Пугачев


ПОГОДА в Пугачеве

  • Прогноз погоды в Пугачеве
  • Монитор погоды в Пугачеве

АРХИВ ПОГОДЫ в Пугачеве

Время (UTC), дата Ветер
(напр.,м/с)
 
Видим.   Явления Облачность Т
(С)
Тd
(С)
f
(%)
Тe
(С)
Тes
(С)
Комфортность P
(гПа)
Po
(гПа)
Тmin
(С)
Tmax
(С)
R
(мм)
R24
(мм)
S
(см)
12 14.03 С 7-11
{13}
10 км {ливн. осадки} 8/8 700 м
[Sc]
-0.0 -4.9 70 -7 -7 1016.1 1011.5
15 14.03 С 3
{11}
10 км 3/0
[Ac trans]
-1.5 -6.7 68 -6 -6 1018.6 1013.9 +0.2 0.0
18 14.03 СЗ 2 10 км ясно -5.3 -7.8 83 -10 -10 1021.4 1016.7
21 14.03 СЗ 2 10 км ясно -6.8 -9.0 84 -11 -11 1023.1 1018.3
00 15.03 ЮЗ 1 10 км ясно -11.3 -11.8 96 -14 -14 1024.0 1019.1
03 15.03 штиль 0 10 км ясно -12.9 -13.8 93 -13 -13 1025.1 1020.3 -12.9 38
06 15.03 штиль 0 10 км 5/0
[Ci fib]
-5.4 -8.5 79 -6 -1 1026.4 1021.7 -13.0
09 15.03 В 1 10 км 8/0
[Ac trans]
+1.0 -8.1 51 -0 +5 1025.8 1021.2
12 15.03 ЮВ 3 10 км 10/0
[Ac trans Ci sp]
-0.2 -8.0 56 -4 -3 1025.4 1020.7
15 15.03 ЮВ 2 10 км 10/0
[Ci sp]
-3.4 -6.8 77 -7 -7 1024.7 1020.0 +1.4
18 15.03 штиль 0 10 км 6/0
[Ac trans]
-7.4 -8.7 90 -8 -8 1024.8 1020.0
21 15.03 В 1 10 км 6/0
[Ac trans Ci sp]
-8.8 -9.5 95 -11 -11 1024.3 1019.5
00 16.03 ЮВ 2 10 км 10/0
[Ac trans]
-6.8 -8.5 88 -11 -11 1023.2 1018.4
03 16.03 В 2 10 км 10/0
[Ac trans]
-6.1 -8.0 86 -10 -10 1021.7 1016.9 -8.9 34
06 16.03 ЮВ 4 10 км 10/0
[As trans]
-4.8 -7.0 85 -11 -10 1020.9 1016.2
09 16.03 ЮВ 7-10
{10}
10 км 10/0
[As trans]
-1.6 -5.4 75 -9 -8 1019.0 1014.3
12 16.03 ЮВ 4
{11}
4000 м слаб. снег 10/0
[As op]
-0.3 -2.6 84 -6 -5 1017.9 1013.2
15 16.03 ЮВ 5 4000 м слаб. снег 10/10 210 м
[St]
-0.8 -1.3 96 -7 -7 1016.8 1012.2 -0.3 0.3
18 16.03 ЮВ 6
{10}
10 км {снег} 10/10 210 м
[St]
-1.3 -1.7 97 -8 -8 1016.1 1011.4
21 16.03 ЮВ 5
{10}
10 км 10/10 300 м
[St]
-0.7 -2.0 91 -7 -7 1015.8 1011.2
00 17.03 ЮВ 5 10 км 10/10 270 м
[St]
0.0 -0.8 94 -6 -6 1015.2 1010.6
03 17.03 ЮВ 5 10 км 10/5 300 м
[Frnb As op]
+0.2 -0.5 95 -6 -6 1015.5 1010.9 -1.6 0.0 34
06 17.03 ЮВ 5 10 км 10/4 300 м
[Frnb As op]
+0.4 -0.8 92 -6 -5 1016.7 1012.1
09 17.03 ЮВ 6 10 км 10/0
[As op]
+1.1 -0.8 87 -5 -5 1017.3 1012.7
12 17.03 ЮВ 4 10 км 10/10 300 м
[St]
+0.4 -0.8 92 -5 -5 1018.3 1013.7
15 17.03 В 4 4000 м слаб. снег 10/10 120 м
[Frnb]
-0.6 -1.8 92 -6 -6 1019.3 1014.6 +1.2 0.6
18 17.03 ЮВ 3 4000 м слаб. снег 10/10 120 м
[Frnb Ns]
-1.4 -2.5 92 -6 -6 1020.4 1015.8
21 17.03 В 2 4000 м слаб. снег 10/10 120 м
[Frnb Ns]
-2.1 -3.5 90 -6 -6 1021.3 1016.6
00 18.03 СВ 1 10 км {снег} 10/10 210 м
[St]
-2.0 -2.9 94 -4 -4 1021.9 1017.2
03 18.03 СВ 2 10 км 9/0
[Ac trans]
-1.9 -3.9 86 -6 -6 1022.9 1018.2 -2.2 2 37
06 18.03 В 3 10 км 10/0
[As op]
+0.4 -4.4 70 -4 -3 1024.4 1019.8
09 18.03 СВ 3 10 км 10/0
[Ac As]
+1.3 -3.7 69 -3 -1 1025.1 1020.4
12 18.03 В 2 10 км 8/8 600 м
[Sc]
+1.5 -4.3 65 -1 -1 1026.1 1021.4
15 18.03 СВ 2 10 км 8/8 600 м
[Sc]
+0.3 -2.7 80 -3 -3 1027.1 1022.5 +1.9
18 18.03 СВ 2 10 км ясно -1.2 -5.0 75 -5 -5 1027.3 1022.6
21 18.03 СЗ 1 10 км ясно -3.7 -5.7 86 -6 -6 1027.6 1022.9
00 19.03 СЗ 3 10 км ясно -3.9 -6.2 84 -9 -9 1028.3 1023.6
03 19.03 СВ 2 10 км ясно -4.0 -6.6 82 -8 -8 1029.1 1024.3 -4.9 36
06 19.03 С 2 10 км 3/0
[Ci fib]
0.0 -5.7 65 -3 +1 1029.0 1024.4 -5.3
09 19.03 С 2 10 км 5/0
[Ci]
+1.3 -4.5 65 -2 +6 1029.3 1024.6
12 19.03 С 2 10 км ясно +2.1 -4.7 61 -1 +3 1028.7 1024.1
15 19.03 С 1 10 км ясно -0.1 -4.1 74 -2 -2 1029.1 1024.4 +2.2
18 19.03 штиль 0 10 км ясно -4.0 -5.0 93 -5 -5 1029.3 1024.5
21 19.03 СВ 1 10 км ясно -6.2 -6.7 96 -9 -9 1028.8 1024.1
00 20.03 штиль 0 10 км ясно -8.8 -9.4 95 -9 -9 1028.1 1023.3
03 20.03 штиль 0 4000 м дымка ясно -8.6 -9.1 96 -9 -9 1028.2 1023.4 -9.5 35
06 20.03 ЮВ 1 10 км ясно -2.7 -5.2 83 -5 +1 1027.8 1023.1 -10.2
09 20.03 СВ 1 10 км ясно +4.0 -2.2 64 +3 +13 опасность
простуды
1027.0 1022.4
12 20.03 С 2 10 км ясно +4.7 -1.2 66 +2 +6 1026.2 1021.6
15 20.03 штиль 0 10 км ясно +2.0 -2.0 75 +1 +1 1025.3 1020.7 +6.7
18 20.03 штиль 0 10 км ясно -3.1 -3.6 96 -4 -4 1025.1 1020.4
21 20.03 штиль 0 4000 м дымка ясно -5.2 -6.4 91 -6 -6 1024.1 1019.4
00 21.03 С 2 500 м туман ясно -8.2 -8.7 96 -13 -13 1023.1 1018.3
03 21.03 С 1 500 м туман [диам. изморози 4 мм] 6/0
[Ci sp]
-9.8 -10.4 95 -12 -12 1022.4 1017.6 -9.8 33
06 21.03 В 1 4000 м дымка {туман} [диам. изморози 4 мм] 5/0
[Ac trans]
-3.9 -5.2 91 -6 -2 1021.6 1016.9 -9.9
09 21.03 СЗ 2 10 км 8/8 800 м
[Sc]
+1.5 -1.4 81 -2 0 1020.9 1016.3

 

Местоположение метеостанции Пугачев (Саратовская область, Россия): широта 52.03 долгота 48.83 высота над уровнем моря 38 м.

В архиве по умолчанию представлена погода в Пугачеве за последнюю неделю. Архивные данные за месяц целиком и за предыдущие месяцы, начиная с января 2011 года, Вы можете получить, выбрав интересующий диапазон дат из раскрывающегося списка и нажав кнопку "Ввод!".


*Определитесь, кто Вы:
робот инопланетянин человек

Внимание! Время в таблицах - всемирное. Для получения местного времени необходимо прибавить поправку, которая равна 4 ч.

Смотрите также архив погоды в соседних городах и на ближайших метеорологических станциях:

Погода в Балаково (Саратовская область, Россия) (69 км)
Погода в Хвалынске (Саратовская область, Россия) (73 км)
Погода в Ершове (Саратовская область, Россия) (82 км)
Погода в Приволжье (Самарская область, Россия) (95 км)
Погода в Перелюбе (Саратовская область, Россия) (104 км)
Погода в Озинках (Саратовская область, Россия) (111 км)
Погода в Безенчуке (Самарская область, Россия) (113 км)
Погода в Большая Глушица (Самарская область, Россия) (118 км)
Погода в Чапаевске (Самарская область, Россия) (124 км)
Погода в Сызрани (Самарская область, Россия) (131 км)

Пояснения к столбцам:

Ветер - указаны скорость ветра в м/с - средняя за 10 мин, порывы в срок и между сроками (в фигурных скобках) и направление, откуда дует ветер: С - северный, СВ - северо-восточный, В - восточный, ЮВ - юго-восточный, Ю - южный, ЮЗ - юго-западный, З - западный, СЗ - северо-западный.
Видимость - горизонтальная дальность видимости в метрах или километрах. При видимости от 1 до 10 км при отсутствии осадков обычно наблюдается дымка, при ухудшении видимости до 1 км и менее - туман. В сухую погоду видимость может ухудшаться дымом, пылью или мглою.
Явления - указаны атмосферные явления, наблюдавшиеся в срок или в последний час перед сроком; фигурными скобками обозначены явления, наблюдавшиеся между сроками (за 1-3 часа до срока); квадратными скобками обозначены град или гололедные отложения с указанием их диаметра в мм.
Облачность - указаны через наклонную черту общая и нижняя облачность в баллах и высота нижней границы облаков в метрах; квадратными скобками обозначены формы облаков: Ci - перистые, Cs - перисто-слоистые, Cc - перисто-кучевые, Ac - высококучевые, As - высокослоистые, Sc - слоисто-кучевые, Ns - слоисто-дождевые, Cu - кучевые, Cb - кучево-дождевые. Подробнее классификацию облаков см. в Атласе облаков (PDF).
T - Температура воздуха - температура, измеренная на высоте 2 м над землей.
Td - Температура точки росы - температура, при понижении до которой содержащийся в воздухе водяной пар достигнет насыщения.
f - Относительная влажность воздуха - влажноcть воздуха, измеренная на высоте 2 м над землей.
Te - Эффективная температура - температура, которую ощущает одетый по сезону человек в тени. Характеристика душности погоды. При расчете учитывается влияние влажности воздуха и скорости ветра на теплоощущения человека.
Tes - Эффективная температура на солнце - температура, которую ощущает человек, с поправкой на солнечный нагрев. Характеристика знойности погоды. Зависит от высоты солнца над горизонтом, облачности и скорости ветра. Ночью, в пасмурную погоду, а также при ветре 12 м/с и более поправка равна нулю.
P - Атмосферное давление - приведенное к уровню моря атмосферное давление.
Po - Атмосферное давление - измеренное на уровне метеостанции атмосферное давление.
Tmin - Минимальная температура - минимум температуры воздуха на высоте 2 м над землей.
Tmax - Максимальная температура - максимум температуры воздуха на высоте 2 м над землей.
R - Количество осадков - Количество выпавших осадков за период времени, мм. При наведении курсора мыши на число - период времени, за который выпало указанное количество осадков.
R24 - Количество осадков - Количество выпавших осадков за 24 часа, мм.
S - Снежный покров - Высота снежного покрова, см. При наведении курсора мыши на число - состояние снежного покрова и степень покрытия местности в баллах.